Time,TemperatureF,DewpointF,PressureIn,WindDirection,WindDirectionDegrees,WindSpeedMPH,WindSpeedGustMPH,Humidity,HourlyPrecipIn,Conditions,Clouds,dailyrainin,SoftwareType,DateUTC
2013-10-09 00:22:00,48.0,-99.9,-100.00,West,279,2.0,4.0,-999,-99.99,,,-99.99,,2013-10-09 07:22:00,
2013-10-09 00:42:00,47.0,-99.9,-100.00,West,260,2.0,4.0,-999,-99.99,,,-99.99,,2013-10-09 07:42:00,
2013-10-09 00:52:00,47.0,-99.9,-100.00,West,260,2.0,4.0,-999,-99.99,,,-99.99,,2013-10-09 07:52:00,
2013-10-09 01:20:00,47.0,-99.9,-100.00,West,279,7.0,7.0,-999,-99.99,,,-99.99,,2013-10-09 08:20:00,
2013-10-09 01:42:00,46.0,-99.9,-100.00,WNW,289,4.0,7.0,-999,-99.99,,,-99.99,,2013-10-09 08:42:00,
2013-10-09 01:53:00,47.0,-99.9,-100.00,West,260,3.0,6.0,-999,-99.99,,,-99.99,,2013-10-09 08:53:00,
2013-10-09 02:11:00,47.0,-99.9,-100.00,West,279,7.0,7.0,-999,-99.99,,,-99.99,,2013-10-09 09:11:00,
2013-10-09 02:20:00,46.0,-99.9,-100.00,West,260,4.0,5.0,-999,-99.99,,,-99.99,,2013-10-09 09:20:00,
2013-10-09 02:43:00,45.0,-99.9,-100.00,WSW,238,4.0,5.0,-999,-99.99,,,-99.99,,2013-10-09 09:43:00,
2013-10-09 02:54:00,47.0,-99.9,-100.00,North,350,3.0,4.0,-999,-99.99,,,-99.99,,2013-10-09 09:54:00,
2013-10-09 03:13:00,46.0,-99.9,-100.00,West,260,4.0,5.0,-999,-99.99,,,-99.99,,2013-10-09 10:13:00,
2013-10-09 03:43:00,44.0,-99.9,-100.00,West,272,5.0,6.0,-999,-99.99,,,-99.99,,2013-10-09 10:43:00,
2013-10-09 03:53:00,44.0,-99.9,-100.00,West,272,5.0,6.0,-999,-99.99,,,-99.99,,2013-10-09 10:53:00,
2013-10-09 04:12:00,45.0,-99.9,-100.00,WNW,294,4.0,9.0,-999,-99.99,,,-99.99,,2013-10-09 11:12:00,
2013-10-09 04:22:00,45.0,-99.9,-100.00,WNW,294,4.0,9.0,-999,-99.99,,,-99.99,,2013-10-09 11:22:00,
2013-10-09 04:42:00,44.0,-99.9,-100.00,NW,310,6.0,7.0,-999,-99.99,,,-99.99,,2013-10-09 11:42:00,
2013-10-09 04:52:00,44.0,-99.9,-100.00,NW,310,6.0,7.0,-999,-99.99,,,-99.99,,2013-10-09 11:52:00,
2013-10-09 05:12:00,45.0,-99.9,-100.00,West,263,5.0,6.0,-999,-99.99,,,-99.99,,2013-10-09 12:12:00,
2013-10-09 05:22:00,45.0,-99.9,-100.00,West,263,5.0,6.0,-999,-99.99,,,-99.99,,2013-10-09 12:22:00,
2013-10-09 05:42:00,43.0,-99.9,-100.00,WNW,283,3.0,4.0,-999,-99.99,,,-99.99,,2013-10-09 12:42:00,
2013-10-09 05:52:00,43.0,-99.9,-100.00,WNW,283,3.0,4.0,-999,-99.99,,,-99.99,,2013-10-09 12:52:00,
2013-10-09 06:12:00,45.0,-99.9,-100.00,WNW,296,2.0,8.0,-999,-99.99,,,-99.99,,2013-10-09 13:12:00,
2013-10-09 06:22:00,45.0,-99.9,-100.00,WNW,296,2.0,8.0,-999,-99.99,,,-99.99,,2013-10-09 13:22:00,
2013-10-09 06:42:00,43.0,-99.9,-100.00,WNW,283,4.0,5.0,-999,-99.99,,,-99.99,,2013-10-09 13:42:00,
2013-10-09 06:52:00,43.0,-99.9,-100.00,WNW,283,4.0,5.0,-999,-99.99,,,-99.99,,2013-10-09 13:52:00,
2013-10-09 07:11:00,45.0,-99.9,-100.00,West,266,2.0,5.0,-999,-99.99,,,-99.99,,2013-10-09 14:11:00,
2013-10-09 07:22:00,45.0,-99.9,-100.00,West,266,2.0,5.0,-999,-99.99,,,-99.99,,2013-10-09 14:22:00,
2013-10-09 07:42:00,43.0,-99.9,-100.00,WSW,242,2.0,5.0,-999,-99.99,,,-99.99,,2013-10-09 14:42:00,
2013-10-09 07:52:00,43.0,-99.9,-100.00,WSW,242,2.0,5.0,-999,-99.99,,,-99.99,,2013-10-09 14:52:00,
2013-10-09 08:43:00,44.0,-99.9,-100.00,West,272,4.0,4.0,-999,-99.99,,,-99.99,,2013-10-09 15:43:00,
2013-10-09 08:54:00,44.0,-99.9,-100.00,West,272,4.0,4.0,-999,-99.99,,,-99.99,,2013-10-09 15:54:00,
2013-10-09 09:13:00,44.0,-99.9,-100.00,WNW,289,3.0,5.0,-999,-99.99,,,-99.99,,2013-10-09 16:13:00,
2013-10-09 09:24:00,44.0,-99.9,-100.00,WNW,289,3.0,5.0,-999,-99.99,,,-99.99,,2013-10-09 16:24:00,
2013-10-09 09:43:00,44.0,-99.9,-100.00,WNW,286,2.0,5.0,-999,-99.99,,,-99.99,,2013-10-09 16:43:00,
2013-10-09 09:53:00,44.0,-99.9,-100.00,WNW,286,2.0,5.0,-999,-99.99,,,-99.99,,2013-10-09 16:53:00,
2013-10-09 10:42:00,46.0,-99.9,-100.00,West,260,4.0,5.0,-999,-99.99,,,-99.99,,2013-10-09 17:42:00,
2013-10-09 10:52:00,46.0,-99.9,-100.00,West,260,4.0,5.0,-999,-99.99,,,-99.99,,2013-10-09 17:52:00,
2013-10-09 11:10:00,47.0,-99.9,-100.00,NW,321,3.0,3.0,-999,-99.99,,,-99.99,,2013-10-09 18:10:00,
2013-10-09 11:22:00,44.0,-99.9,-100.00,NW,317,3.0,4.0,-999,-99.99,,,-99.99,,2013-10-09 18:22:00,
2013-10-09 11:42:00,46.0,-99.9,-100.00,NW,317,2.0,3.0,-999,-99.99,,,-99.99,,2013-10-09 18:42:00,
2013-10-09 11:52:00,46.0,-99.9,-100.00,NW,317,2.0,3.0,-999,-99.99,,,-99.99,,2013-10-09 18:52:00,
2013-10-09 12:22:00,50.0,-99.9,-100.00,East,83,0.0,2.0,-999,-99.99,,,-99.99,,2013-10-09 19:22:00,
2013-10-09 12:42:00,51.0,-99.9,-100.00,ENE,58,2.0,3.0,-999,-99.99,,,-99.99,,2013-10-09 19:42:00,
2013-10-09 12:53:00,51.0,-99.9,-100.00,ENE,58,2.0,3.0,-999,-99.99,,,-99.99,,2013-10-09 19:53:00,
2013-10-09 13:11:00,54.0,-99.9,-100.00,NNE,19,2.0,4.0,-999,-99.99,,,-99.99,,2013-10-09 20:11:00,
2013-10-09 13:43:00,54.0,-99.9,-100.00,ENE,70,1.0,4.0,-999,-99.99,,,-99.99,,2013-10-09 20:43:00,
2013-10-09 13:52:00,53.0,-99.9,-100.00,NW,326,0.0,4.0,-999,-99.99,,,-99.99,,2013-10-09 20:52:00,
2013-10-09 14:10:00,59.0,-99.9,-100.00,ENE,64,4.0,6.0,-999,-99.99,,,-99.99,,2013-10-09 21:10:00,
2013-10-09 14:12:00,57.0,-99.9,-100.00,NE,52,4.0,4.0,-999,-99.99,,,-99.99,,2013-10-09 21:12:00,
2013-10-09 14:23:00,58.0,-99.9,-100.00,NE,34,0.0,5.0,-999,-99.99,,,-99.99,,2013-10-09 21:23:00,
2013-10-09 14:44:00,60.0,-99.9,-100.00,East,83,3.0,6.0,-999,-99.99,,,-99.99,,2013-10-09 21:44:00,
2013-10-09 14:54:00,60.0,-99.9,-100.00,NE,54,7.0,8.0,-999,-99.99,,,-99.99,,2013-10-09 21:54:00,
2013-10-09 15:24:00,61.0,-99.9,-100.00,East,81,2.0,9.0,-999,-99.99,,,-99.99,,2013-10-09 22:24:00,
2013-10-09 15:43:00,62.0,-99.9,-100.00,ENE,64,1.0,6.0,-999,-99.99,,,-99.99,,2013-10-09 22:43:00,
2013-10-09 15:53:00,62.0,-99.9,-100.00,ENE,65,3.0,8.0,-999,-99.99,,,-99.99,,2013-10-09 22:53:00,
2013-10-09 16:12:00,62.0,-99.9,-100.00,ENE,71,6.0,6.0,-999,-99.99,,,-99.99,,2013-10-09 23:12:00,
2013-10-09 16:22:00,62.0,-99.9,-100.00,ENE,71,6.0,6.0,-999,-99.99,,,-99.99,,2013-10-09 23:22:00,
2013-10-09 16:43:00,61.0,-99.9,-100.00,SE,144,1.0,4.0,-999,-99.99,,,-99.99,,2013-10-09 23:43:00,
2013-10-09 16:54:00,61.0,-99.9,-100.00,SE,144,1.0,4.0,-999,-99.99,,,-99.99,,2013-10-09 23:54:00,
2013-10-09 17:12:00,62.0,-99.9,-100.00,ENE,66,0.0,3.0,-999,-99.99,,,-99.99,,2013-10-10 00:12:00,
2013-10-09 17:22:00,62.0,-99.9,-100.00,ENE,66,0.0,3.0,-999,-99.99,,,-99.99,,2013-10-10 00:22:00,
2013-10-09 17:42:00,61.0,-99.9,-100.00,SSW,195,2.0,2.0,-999,-99.99,,,-99.99,,2013-10-10 00:42:00,
2013-10-09 17:52:00,61.0,-99.9,-100.00,SSW,195,2.0,2.0,-999,-99.99,,,-99.99,,2013-10-10 00:52:00,
2013-10-09 18:22:00,62.0,-99.9,-100.00,SSW,193,1.0,2.0,-999,-99.99,,,-99.99,,2013-10-10 01:22:00,
2013-10-09 18:42:00,62.0,-99.9,-100.00,SE,146,1.0,1.0,-999,-99.99,,,-99.99,,2013-10-10 01:42:00,
2013-10-09 18:52:00,62.0,-99.9,-100.00,SE,146,1.0,1.0,-999,-99.99,,,-99.99,,2013-10-10 01:52:00,
2013-10-09 19:22:00,60.0,-99.9,-100.00,SSE,149,1.0,1.0,-999,-99.99,,,-99.99,,2013-10-10 02:22:00,
2013-10-09 19:52:00,56.0,-99.9,-100.00,South,172,1.0,1.0,-999,-99.99,,,-99.99,,2013-10-10 02:52:00,
2013-10-09 19:55:00,58.0,-99.9,-100.00,SW,228,1.0,2.0,-999,-99.99,,,-99.99,,2013-10-10 02:55:00,
2013-10-09 20:22:00,56.0,-99.9,-100.00,West,261,1.0,1.0,-999,-99.99,,,-99.99,,2013-10-10 03:22:00,
2013-10-09 20:44:00,58.0,-99.9,-100.00,SW,228,1.0,2.0,-999,-99.99,,,-99.99,,2013-10-10 03:44:00,
2013-10-09 21:54:00,54.0,-99.9,-100.00,WSW,250,2.0,2.0,-999,-99.99,,,-99.99,,2013-10-10 04:54:00,
2013-10-09 22:43:00,53.0,-99.9,-100.00,West,266,2.0,2.0,-999,-99.99,,,-99.99,,2013-10-10 05:43:00,
2013-10-09 22:53:00,53.0,-99.9,-100.00,West,266,2.0,2.0,-999,-99.99,,,-99.99,,2013-10-10 05:53:00,
2013-10-09 23:20:00,53.0,-99.9,-100.00,SE,138,2.0,2.0,-999,-99.99,,,-99.99,,2013-10-10 06:20:00,
2013-10-09 23:22:00,51.0,-99.9,-100.00,West,262,3.0,4.0,-999,-99.99,,,-99.99,,2013-10-10 06:22:00,
2013-10-09 23:43:00,54.0,-99.9,-100.00,SSW,208,1.0,4.0,-999,-99.99,,,-99.99,,2013-10-10 06:43:00,
2013-10-09 23:53:00,54.0,-99.9,-100.00,East,82,0.0,3.0,-999,-99.99,,,-99.99,,2013-10-10 06:53:00,